Lexington Weather

Lexington, Massachusetts, USA

34°F
4/16/2021 10:53am 
  • Lexington Conditions: Snow, Fog, Overcast
  • Temperature: 34.0°F / 1.1°CWarmer 0.2°F than last hour.
  • Dew Point: 32.7°FIncreased 0.2°Fsince last hour.
  • Relative Humidity: 95
  • Wind: Wind from N N 1 mph, 10-min avg: 2 mph, gust: 4 mph
  • Barometer: 29.47 inFalling 0.03  inHg/hr Falling Slowly
  • Visibility: ½ mile
  • Snow Today: 1.3 in
  •   

Regional Weather Roundup
for Boston / Norton, MA

        
000
ASUS41 KBOX 101304
RWRBOX

REGIONAL WEATHER ROUNDUP
NATIONAL WEATHER SERVICE BOSTON/NORTON MA
900 AM EDT SAT APR 10 2021

NOTE:  "FAIR" INDICATES FEW OR NO CLOUDS BELOW 12,000 FEET WITH NO 
SIGNIFICANT WEATHER AND/OR OBSTRUCTIONS TO VISIBILITY.

MAZALL-101400-
EASTERN MASSACHUSETTS
  
CITY           SKY/WX    TMP DP  RH WIND       PRES   REMARKS
BOSTON         PTSUNNY   56  44  64 SW9       30.01R                  
BEVERLY        NOT AVBL                                               
LAWRENCE       PTSUNNY   58  46  64 W7        30.01R                  
BEDFORD        PTSUNNY   54  45  71 S5        30.00R                  
BLUE HILL        N/A     50  44  80 SW9       29.99S                  
NORWOOD        CLOUDY    54  44  69 SW5       30.01S                  
MARSHFIELD     MOSUNNY   55  46  71 W8        30.01S                  
PLYMOUTH       CLOUDY    51  45  79 SW7       30.02S                  
TAUNTON        CLOUDY    51  45  79 VRB3      30.02S                  
NEW BEDFORD    CLOUDY    51  46  83 SW7       30.02S                  
$$

MAZALL-101400-
CAPE COD AND THE ISLANDS
  
CITY           SKY/WX    TMP DP  RH WIND       PRES   REMARKS
FALMOUTH       PTSUNNY   48  48 100 SW7       30.03S                  
HYANNIS        CLOUDY    48  46  93 SW9       30.02S                  
CHATHAM        FOG       45  44  97 SW7       30.04S VSB 3/4          
PROVINCETOWN   LGT RAIN  44  44 100 S10         N/A  VSB 1/2          
NANTUCKET      FOG       43  43 100 SW6       30.05S VSB 1/2          
MARTHAS VNYRD  FOG       47  46  97 S8        30.04S VSB 1            
$$
 
MAZALL-101400-
CENTRAL AND WESTERN MASSACHUSETTS
  
CITY           SKY/WX    TMP DP  RH WIND       PRES   REMARKS
WORCESTER      SUNNY     58  45  62 W13       30.00F                  
FITCHBURG      SUNNY     57  46  66 CALM      30.00S                  
ORANGE         SUNNY     53  47  79 VRB3      30.03R                  
SPRINGFIELD    PTSUNNY   54  44  69 CALM      30.01F                  
WESTFIELD      SUNNY     55  45  68 VRB3      30.02S                  
NORTH ADAMS    CLOUDY    55  43  63 E3        30.01F                  
PITTSFIELD     SUNNY     55  46  71 S5        30.00F                  
$$
 
RIZALL-101400-
RHODE ISLAND
  
CITY           SKY/WX    TMP DP  RH WIND       PRES   REMARKS
PROVIDENCE     PTSUNNY   52  48  86 VRB3      30.03F                  
NEWPORT        CLOUDY    47  47 100 SW5       30.04R                  
BLOCK ISLAND   LGT RAIN  46  45  96 W10       30.05F VSB 1            
SMITHFIELD     SUNNY     52  49  89 VRB6      30.02S                  
WESTERLY       CLOUDY    48  46  93 SW10      30.05S                  
$$
 
CTZALL-101400-
CONNECTICUT
  
CITY           SKY/WX    TMP DP  RH WIND       PRES   REMARKS
BRADLEY INTL   PTSUNNY   54  45  71 S5        30.02F                  
HARTFORD       CLOUDY    54  45  71 VRB5      30.04S                  
BRIDGEPORT     CLOUDY    51  47  86 SW6       30.06S                  
DANBURY        CLOUDY    54  47  77 SW5       30.05F                  
GROTON         CLOUDY    50  47  89 W8        30.05S                  
NEW HAVEN      CLOUDY    51  48  89 SW6       30.05F                  
CHESTER        CLOUDY    50  46  87 VRB3      30.05F                  
MERIDEN        CLOUDY    52  45  77 SE5       30.04F                  
WILLIMANTIC    CLOUDY    52  45  77 CALM      30.03F                  
OXFORD         PTSUNNY   50  50 100 NW5       30.05F                  
$$

MEZ002-015-021-024-NHZ003-005-008-011-012-014-VTZ005-008-101400-
NORTHERN NEW ENGLAND
  
CITY           SKY/WX    TMP DP  RH WIND       PRES   REMARKS
PORTLAND ME    SUNNY     53  45  74 CALM      29.97F                  
BANGOR ME      CLOUDY    52  43  71 VRB3      29.96F                  
CONCORD NH     PTSUNNY   51  43  74 CALM      30.00R                  
MANCHESTER NH  PTSUNNY   55  44  66 S5        29.98S                  
NASHUA NH      CLOUDY    52  48  86 NW3       30.00S                  
PORTSMOUTH NH  MOSUNNY   54  44  69 SW5       29.99S                  
JAFFREY NH     SUNNY     52  47  83 S6        30.01R                  
KEENE NH       SUNNY     54  48  80 CALM      30.02S                  
BURLINGTON VT  MOSUNNY   60  47  61 S15       29.98S                  
MT. WASHINGTON MOSUNNY   41  34  75 W7          N/A                   
$$

NYZ052-076-101400-
EASTERN NEW YORK
  
CITY           SKY/WX    TMP DP  RH WIND       PRES   REMARKS
ALBANY         CLOUDY    51  44  77 SE6       30.01F                  
NEW YORK CITY  CLOUDY    52  48  86 NE5       30.04F                  
$$
 
ANZALL-101400-
MARINE OBSERVATIONS
  
STATION/POSITION TIME  TEMP    WIND        PRES    VSBY  WAVE
                       AIR SEA DIR/SP/G                  HT/PER
                 (UTC) (F)     (DEG/KT/KT) (MB)    (MI)  (FT/S)
BOSTON BUOY      1250   45 45  190/ 10/ 12 1016.3F         4/ 9
BUZZARDS BAY     1200          250/  9/  9 1018.4R
NANTUCKET SOUND  1250      46                N/A           1
MASS BAY-STELLWA 1204   45     200/  8/ 10 1014.8F  1 7/8  4/11
ISLE OF SHOALS   1200   47     200/ 11/ 11 1014.9F
S OF BLOCK IS    1226      46                N/A           3/10
$$

......................KEY.........................
  SKY/WX - SKY CONDITION/PRESENT WEATHER
  TMP    - TEMPERATURE IN FAHRENHEIT
  DWPT   - DEWPOINT IN FAHRENHEIT
  RH     - RELATIVE HUMIDITY IN PERCENT
  WIND   - DIRECTION AND SPEED IN MPH
  PRES   - MEAN SEA LEVEL PRESSURE IN INCHES OF HG
  WCI    - WIND CHILL INDEX
  VSB    - VISIBILITY IN MILES
  HX     - HEAT INDEX
  TC     - TEMPERATURE IN CELSIUS
  VRB    - VARIABLE WIND DIRECTION
  N/A    - NOT AVAILABLE
  
      

Other recent Regional Weather Roundups

Fri Apr 16, 10:05am

Fri Apr 16, 9:04am

Fri Apr 16, 8:04am

Fri Apr 16, 7:04am

Fri Apr 16, 6:04am

Fri Apr 16, 5:04am

Fri Apr 16, 4:04am

Fri Apr 16, 3:04am

Fri Apr 16, 2:04am

Fri Apr 16, 1:04am

Fri Apr 16, 12:04am

Thu Apr 15, 11:05pm

Thu Apr 15, 10:04pm

Thu Apr 15, 9:04pm

Thu Apr 15, 8:04pm

Thu Apr 15, 7:05pm

Thu Apr 15, 6:04pm

Thu Apr 15, 5:05pm

Thu Apr 15, 4:04pm

Thu Apr 15, 3:05pm

Thu Apr 15, 2:04pm

Thu Apr 15, 1:05pm

Thu Apr 15, 12:04pm

Thu Apr 15, 11:04am

Thu Apr 15, 10:05am

Thu Apr 15, 9:04am

Thu Apr 15, 8:04am

Thu Apr 15, 7:04am

Thu Apr 15, 6:04am

Thu Apr 15, 5:04am

Thu Apr 15, 4:04am

Thu Apr 15, 3:04am

Thu Apr 15, 2:04am

Thu Apr 15, 1:04am

Thu Apr 15, 12:04am

Wed Apr 14, 11:04pm

Wed Apr 14, 10:04pm

Wed Apr 14, 9:04pm

Wed Apr 14, 8:04pm

Wed Apr 14, 7:04pm

Wed Apr 14, 6:04pm

Wed Apr 14, 5:05pm

Wed Apr 14, 4:04pm

Wed Apr 14, 3:05pm

Wed Apr 14, 2:04pm

Wed Apr 14, 1:05pm

Wed Apr 14, 12:04pm

Wed Apr 14, 11:04am

Wed Apr 14, 10:04am

Wed Apr 14, 9:04am

Wed Apr 14, 8:04am

Wed Apr 14, 7:04am

Wed Apr 14, 6:04am

Wed Apr 14, 5:04am

Wed Apr 14, 4:04am

Wed Apr 14, 3:04am

Wed Apr 14, 2:04am

Wed Apr 14, 1:04am

Wed Apr 14, 12:04am

Tue Apr 13, 11:04pm

Tue Apr 13, 10:05pm

Tue Apr 13, 9:05pm

Tue Apr 13, 8:05pm

Tue Apr 13, 7:04pm

Tue Apr 13, 6:04pm

Tue Apr 13, 5:05pm

Tue Apr 13, 4:04pm

Tue Apr 13, 3:04pm

Tue Apr 13, 2:05pm

Tue Apr 13, 1:04pm

Tue Apr 13, 12:05pm

Tue Apr 13, 11:05am

Tue Apr 13, 10:04am

Tue Apr 13, 9:04am

Tue Apr 13, 8:04am

Tue Apr 13, 7:04am

Tue Apr 13, 6:04am

Tue Apr 13, 5:04am

Tue Apr 13, 4:04am

Tue Apr 13, 3:04am

Tue Apr 13, 2:04am

Tue Apr 13, 1:04am

Tue Apr 13, 12:05am

Mon Apr 12, 11:04pm

Mon Apr 12, 10:04pm

Mon Apr 12, 9:04pm

Mon Apr 12, 8:04pm

Mon Apr 12, 7:05pm

Mon Apr 12, 6:04pm

Mon Apr 12, 5:04pm

Mon Apr 12, 4:04pm

Mon Apr 12, 3:05pm

Mon Apr 12, 2:04pm

Mon Apr 12, 1:05pm

Mon Apr 12, 12:04pm

Mon Apr 12, 11:04am

Mon Apr 12, 10:04am

Mon Apr 12, 9:04am

Mon Apr 12, 8:04am

Mon Apr 12, 7:04am

Mon Apr 12, 6:04am

Mon Apr 12, 5:04am

Mon Apr 12, 4:04am

Mon Apr 12, 3:04am

Mon Apr 12, 2:04am

Mon Apr 12, 1:05am

Mon Apr 12, 12:04am

Sun Apr 11, 11:04pm

Sun Apr 11, 10:04pm

Sun Apr 11, 9:04pm

Sun Apr 11, 8:04pm

Sun Apr 11, 7:04pm

Sun Apr 11, 6:05pm

Sun Apr 11, 5:05pm

Sun Apr 11, 4:04pm

Sun Apr 11, 3:05pm

Sun Apr 11, 2:05pm

Sun Apr 11, 1:05pm

Sun Apr 11, 12:04pm

Sun Apr 11, 11:05am

Sun Apr 11, 10:05am

Sun Apr 11, 9:04am

Sun Apr 11, 8:04am

Sun Apr 11, 7:04am

Sun Apr 11, 6:04am

Sun Apr 11, 5:04am

Sun Apr 11, 4:04am

Sun Apr 11, 3:04am

Sun Apr 11, 2:04am

Sun Apr 11, 1:05am

Sun Apr 11, 12:04am

Sat Apr 10, 11:05pm

Sat Apr 10, 10:04pm

Sat Apr 10, 9:04pm

Sat Apr 10, 8:04pm

Sat Apr 10, 7:05pm

Sat Apr 10, 6:04pm

Sat Apr 10, 5:04pm

Sat Apr 10, 4:04pm

Sat Apr 10, 3:04pm

Sat Apr 10, 2:05pm

Sat Apr 10, 1:04pm

Sat Apr 10, 12:04pm

Sat Apr 10, 11:04am

Sat Apr 10, 10:04am

Sat Apr 10, 8:04am

Sat Apr 10, 7:04am

Sat Apr 10, 6:04am

Sat Apr 10, 5:04am

Sat Apr 10, 4:04am

Sat Apr 10, 3:04am

Sat Apr 10, 2:04am

Sat Apr 10, 1:05am

Sat Apr 10, 12:04am

Fri Apr 9, 11:04pm

Fri Apr 9, 10:05pm

Fri Apr 9, 9:04pm

Fri Apr 9, 8:05pm

Fri Apr 9, 7:05pm

Fri Apr 9, 6:04pm

Fri Apr 9, 5:04pm

Fri Apr 9, 4:05pm

Fri Apr 9, 3:05pm

Fri Apr 9, 2:04pm

Fri Apr 9, 1:04pm

Fri Apr 9, 12:04pm

Fri Apr 9, 11:05am

Meta data:

ID: 1000d8f7-f775-4013-946f-6ac085bfd61e
Link: https://api.weather.gov/products/1000d8f7-f775-4013-946f-6ac085bfd61e